Location: Unspecified
(45.3999°N, 88.1269°W)
Time: 19:26:50
(UTC-05:00)

Resurs 1-4 Rocket - Visible Passes

Search period start: 19 August 2017 00:00
Search period end: 29 August 2017 00:00
Orbit: 799 x 815 km, 98.5° (Epoch: 18 August)

Date Brightness Start Highest point End Pass type
(mag) Time Alt. Az. Time Alt. Az. Time Alt. Az.
19 Aug 4.6 01:37:00 10° E 01:37:28 10° E 01:37:56 10° E visible
19 Aug 2.1 03:12:52 10° NNE 03:18:09 78° ESE 03:19:26 52° S visible
19 Aug 3.8 04:54:07 10° NNW 04:57:21 17° WNW 05:00:30 10° W visible
20 Aug 2.7 02:48:26 10° NNE 02:53:31 48° E 02:54:28 43° SE visible
20 Aug 3.3 04:28:49 10° N 04:33:05 26° WNW 04:35:33 18° WSW visible
21 Aug 3.4 02:24:13 10° NE 02:28:47 29° E 02:29:32 28° ESE visible
21 Aug 2.7 04:03:51 10° N 04:08:43 40° WNW 04:10:36 29° WSW visible
22 Aug 4.1 02:00:24 10° NE 02:03:59 18° E 02:04:35 18° E visible
22 Aug 2.1 03:39:04 10° N 03:44:16 63° WNW 03:45:39 46° SW visible
22 Aug 4.2 05:22:21 10° NW 05:23:05 10° NW 05:23:49 10° WNW visible
23 Aug 4.6 01:37:56 10° ENE 01:39:04 11° E 01:39:37 10° E visible
23 Aug 2.0 03:14:26 10° NNE 03:19:44 81° ESE 03:20:42 60° S visible
23 Aug 3.9 04:55:46 10° NNW 04:58:54 16° WNW 05:01:46 11° W visible
24 Aug 2.6 02:50:00 10° NNE 02:55:06 50° E 02:55:44 47° ESE visible
24 Aug 3.4 04:30:26 10° N 04:34:38 25° WNW 04:36:49 19° W visible
25 Aug 3.4 02:25:45 10° NNE 02:30:23 31° E 02:30:47 30° ESE visible
25 Aug 2.8 04:05:27 10° N 04:10:17 38° WNW 04:11:51 31° WSW visible
26 Aug 4.1 02:01:53 10° NE 02:05:35 19° E 02:05:49 19° E visible
26 Aug 2.2 03:40:39 10° N 03:45:50 61° WNW 03:46:54 50° WSW visible
27 Aug 4.6 01:39:09 10° ENE 01:40:41 11° E 01:40:52 11° E visible
27 Aug 2.0 03:16:01 10° NNE 03:21:18 84° ESE 03:21:56 70° S visible
27 Aug 3.9 04:57:24 10° NNW 05:00:27 16° WNW 05:03:01 11° W visible
28 Aug 2.6 02:51:32 10° NNE 02:56:42 52° E 02:56:59 51° ESE visible
28 Aug 3.4 04:32:03 10° N 04:36:12 24° WNW 04:38:03 20° W visible
